Regional Weather Roundup
Issued by NWS

Home | Current Version | Previous Version | Graphics & Text | Print | Product List | Glossary On
Versions: 1 2 3 4 5 6 7 8 9 10 11 12 13 14 15 16 17 18 19 20 21 22 23 24 25 26 27 28 29 30 31 32 33 34 35 36 37 38 39 40 41 42 43 44 45 46 47 48 49 50
000
ASUS45 KTFX 022204
RWRMT
MONTANA HOURLY WEATHER ROUNDUP
NATIONAL WEATHER SERVICE GREAT FALLS MT
404 PM MDT TUE SEP 2 2014

NOTE: "FAIR" INDICATES FEW OR NO CLOUDS BELOW 12000 FEET WITH NO
SIGNIFICANT WEATHER AND/OR OBSTRUCTIONS TO VISIBILITY.

* THESE STATIONS ARE NOT UNDER NWS QUALITY CONTROL. THEY DO NOT
   REPORT WEATHER SUCH AS PRECIPITATION OR FOG.

MTZ001>007-043-022300-
WEST OF THE DIVIDE
CITY           SKY/WX    TMP DP  RH WIND       PRES   REMARKS
KALISPELL      PTCLDY    72  41  33 S9        29.73F
MISSOULA       SUNNY     79  37  22 VRB6      29.75F
BUTTE          SUNNY     73  27  18 SW8G20    29.85F
MULLAN PASS    PTCLDY    57  39  51 VRB7G20   29.89F
* LINCOLN      N/A       73  37  27 SW6G16     N/A
* LOOKOUT PASS N/A       64  41  43 SE8G20     N/A
* POLSON       N/A       75  38  26 SW3G10     N/A
* RONAN APT    SUNNY     77  39  26 N/A        N/A
* SEELEY LAKE  N/A       69  38  32 N7G13      N/A
* THOMP F APT  SUNNY     65  37  36 S10G23     N/A
$$

MTZ008-052>055-022300-
SOUTHWEST MONTANA
CITY           SKY/WX    TMP DP  RH WIND       PRES   REMARKS
BOZEMAN        SUNNY     77  43  30 NW8       29.79F
DILLON         SUNNY     79  28  15 SW16      29.84F
W YELLOWSTONE  SUNNY     66  36  33 SW21G29   30.01F
* THREE FORKS  SUNNY     79  66  65 N/A        N/A
* BOULDER HILL N/A       72  31  22 S12G20     N/A
* MONIDA PASS  N/A       63  34  34 SE17G24    N/A
* RAYNOLDS PAS N/A       68  50  53 S15G30     N/A
* WHITEHALL    N/A       80  33  18 SW12G21    N/A
* WISE RIVER   N/A       74  28  18 W15G25     N/A
$$

MTZ009>010-012-014-046-048-049-054-022300-
EAST SLOPES AND CENTRAL MONTANA
CITY           SKY/WX    TMP DP  RH WIND       PRES   REMARKS
CUT BANK       PTCLDY    72  39  30 W14G24    29.75F
GREAT FALLS    SUNNY     77  37  24 SW12G25   29.73F
HELENA         SUNNY     77  39  26 NE7       29.75F
MALMSTROM AFB  PTCLDY    75  39  27 W10G20    29.74F
* CONRAD       PTCLDY    73  41  32 SW5        N/A
* EAST GLACIER N/A       62  38  41 NW16G27    N/A
* MONARCH      N/A       68  27  21 SW20       N/A
* PENDROY      N/A       70  41  35 NE6        N/A
* ROGERS PASS  N/A       67  33  28 E15G23     N/A
* SAINT MARY   N/A       60  40  48 S7G18      N/A
* SWEET GRASS  N/A       68  34  28 SW12G19    N/A
$$

MTZ011-013-016-021-035-040-045-047-050-051-022300-
NORTH CENTRAL MONTANA
CITY           SKY/WX    TMP DP  RH WIND       PRES   REMARKS
HAVRE          PTSUNNY   73  37  27 S9G21     29.71F
LEWISTOWN      SUNNY     73  39  29 VRB3      29.79F
* CHESTER      N/A       71  34  26 W12G25     N/A
* DENTON       N/A       74  38  27 NE4G14     N/A
* GEYSER       N/A       75  34  22 SW15G20    N/A
* JUDITH GAP   N/A       75  35  23 W19G28     N/A
* LOMA         N/A       73  37  27 W7G16      N/A
$$

MTZ017>020-022>027-061-062-022300-
NORTHEAST MONTANA
CITY           SKY/WX    TMP DP  RH WIND       PRES   REMARKS
GLASGOW        PTCLDY    73  43  34 SW10      29.74F
GLENDIVE       CLOUDY    72  43  35 W9        29.80F
JORDAN         PTSUNNY   72  37  28 W8        29.78F
SIDNEY         PTCLDY    75  43  32 W8        29.78S
WOLF POINT     PTCLDY    75  45  34 SW9       29.76F
* BEAVER HILL  N/A       73  41  32 SW14G19    N/A
* CIRCLE       N/A       74  42  32 SW6        N/A
* LINDSAY DVD  N/A       69  38  32 SW12       N/A
* NAVAJO       N/A       72  37  28 N1G9       N/A
$$

MTZ028>042-056>058-022300-
SOUTHCENTRAL AND SOUTHEAST MONTANA
CITY           SKY/WX    TMP DP  RH WIND       PRES   REMARKS
BAKER          CLOUDY    72  43  35 W13G21    29.84F
BILLINGS       SUNNY     79  41  26 S5        29.77F
LIVINGSTON     SUNNY     82  28  14 SW22G33   29.78F
MILES CITY     PTCLDY    75  39  27 SW6       29.79F
* LAUREL APT   SUNNY     79  45  30 N/A        N/A
* ROUNDUP APT  SUNNY     77  39  26 S5         N/A
* ALZADA       N/A       81  38  21 SW4G9      N/A
* HYSHAM       N/A       75  38  26 SE6G12     N/A
* LAME DEER    N/A       75  40  28 SW6        N/A
* REED POINT   N/A       80  42  26 NE5G11     N/A
* ROSCOE HILL  N/A       76  32  20 NE8        N/A
$$

REGIONAL REPORTS...DAKOTAS
CITY           SKY/WX    TMP DP  RH WIND       PRES   REMARKS
WILLISTON      PTCLDY    75  41  30 W12       29.75F
DICKINSON      PTCLDY    72  45  38 W9        29.79F
BEACH          N/A       68  41  38 W10       29.82F
CROSBY         SUNNY     72  45  38 NW7       29.75F
TIOGA          SUNNY     73  41  32 NW12      29.79S
WATFORD CITY   SUNNY     75  41  30 W8G16     29.75F
BISMARCK       PTSUNNY   81  46  29 NW10G18   29.78F
GRAND FORKS    PTCLDY    79  54  42 SW16G23   29.68F
FARGO          SUNNY     79  54  42 SW18G26   29.74F
BUFFALO SD     PTSUNNY   75  43  32 NW8       29.78F
RAPID CITY     SUNNY     81  48  32 E9        29.85F
$$

REGIONAL REPORTS...WYOMING/IDAHO/WASHINGTON
CITY           SKY/WX    TMP DP  RH WIND       PRES   REMARKS
GILLETTE       SUNNY     81  34  18 N/A       29.86F
SHERIDAN       PTCLDY    81  41  24 VRB6      29.82F
CODY           SUNNY     79  34  20 SE9       29.84F
YELLOWSTONE LA SUNNY     63  36  37 VRB6G17   30.11F
SALMON         SUNNY     79  43  28 N7        29.76F
MULLAN PASS    PTCLDY    57  39  51 VRB7G20   29.89S
SAND POINT     CLOUDY    70  43  38 SW6       29.74F
SPOKANE        PTCLDY    73  43  34 SW15G26   29.75F
$$

REGIONAL REPORTS...SASKATCHEWAN
CITY           SKY/WX    TMP DP  RH WIND       PRES   REMARKS
SWIFT CURRENT  HAZE      68  37  32 S12G17    29.71F

$$




USA.gov is the U.S. government's official web portal to all federal, state and local government web resources and services.